Pearl River, LA

8:30 PM CST on December 08, 2016 (GMT -0600)
Slidell

Weather History for KASD - August, 2012

Change the Weather History Date:

Thursday, August 30, 2012

  Actual Average (KNEW) Record (KNEW)
Temperature  
Mean Temperature 78 °F -  
Max Temperature 82 °F 89 °F 101 °F (2000)
Min Temperature 73 °F 77 °F 60 °F (1968)
Cooling Degree Days 12    
Growing Degree Days 28 (Base 50)    
Moisture  
Dew Point 77 °F    
Average Humidity 95    
Maximum Humidity 100    
Minimum Humidity 82    
Precipitation  
Precipitation 3.14 in - - ()
Sea Level Pressure  
Sea Level Pressure 29.69 in    
Wind  
Wind Speed 22 mph (South)    
Max Wind Speed 31 mph    
Max Gust Speed 46 mph    
Visibility 6 miles    
Events Fog , Rain    
Averages and records for this station are not official NWS values.
T = Trace of Precipitation, MM = Missing Value Source: NWS Daily Summary

Daily Weather History Graph

Daily Weather History Graph

Search for Another Location

Airport or City:

Trip Planner

Search our weather history database for the weather conditions in past years. The results will help you decide how hot, cold, wet, or windy it might be!

Date:

Astronomy

Aug. 30, 2012 Rise Set
Actual Time 6:35 AM CDT 7:23 PM CDT
Civil Twilight 6:10 AM CDT 7:48 PM CDT
Nautical Twilight 5:41 AM CDT 8:17 PM CDT
Astronomical Twilight 5:12 AM CDT 8:46 PM CDT
Moon 6:40 PM CDT (8/30) 5:36 AM CDT (8/30)
Length of Visible Light 13h 37m
Length of Day
12h 48m
Waxing Gibbous, 99% of the Moon is Illuminated
Aug 30
Waxing Gibbous
Aug 31
Full
Sep 8
Last Quarter
Sep 15
New
Sep 22
First Quarter

Hourly Weather History & Observations

Time (CDT) Temp. Heat Index Dew Point Humidity Pressure Visibility Wind Dir Wind Speed Gust Speed Precip Events Conditions
12:43 AM 78.8 °F - 77.0 °F 94% 29.45 in 2.0 mi SSE 27.6 mph 46.0 mph 0.21 in Rain Heavy Rain
12:46 AM 77.0 °F - 77.0 °F 100% 29.45 in 1.8 mi SSE 29.9 mph 43.7 mph 0.24 in Rain Heavy Rain
12:53 AM 77.0 °F - 77.0 °F 100% 29.46 in 1.5 mi SSE 27.6 mph 46.0 mph 0.32 in Rain Heavy Rain
1:00 AM 77.0 °F - 77.0 °F 100% 29.46 in 1.8 mi SSE 27.6 mph 38.0 mph 0.05 in Rain Heavy Rain
1:02 AM 77.0 °F - 77.0 °F 100% 29.46 in 2.0 mi SSE 27.6 mph 40.3 mph 0.06 in Rain Heavy Rain
1:31 AM 77.0 °F - 77.0 °F 100% 29.47 in 4.0 mi SSE 26.5 mph 40.3 mph 0.19 in Rain Light Rain
1:43 AM 78.8 °F - 77.0 °F 94% 29.47 in 6.0 mi SSE 31.1 mph 42.6 mph 0.21 in Rain Rain
1:53 AM 78.1 °F - 77.0 °F 96% 29.48 in 6.0 mi SSE 24.2 mph 36.8 mph 0.22 in Rain Light Rain
2:01 AM 78.8 °F - 77.0 °F 94% 29.48 in 6.0 mi SSE 25.3 mph 38.0 mph 0.01 in Rain Light Rain
2:16 AM 78.8 °F - 77.0 °F 94% 29.48 in 6.0 mi SSE 23.0 mph 35.7 mph 0.02 in Rain Light Rain
2:26 AM 78.8 °F - 77.0 °F 94% 29.48 in 7.0 mi SSE 20.7 mph 33.4 mph 0.03 in Rain Light Rain
2:35 AM 78.8 °F - 77.0 °F 94% 29.48 in 7.0 mi SSE 19.6 mph 33.4 mph 0.04 in Rain Light Rain
2:48 AM 78.8 °F - 77.0 °F 94% 29.48 in 7.0 mi SSE 19.6 mph 32.2 mph 0.05 in Rain Light Rain
2:53 AM 78.1 °F - 77.0 °F 96% 29.49 in 6.0 mi SSE 20.7 mph 32.2 mph 0.06 in Rain Light Rain
3:53 AM 78.1 °F - 75.9 °F 93% 29.51 in 4.0 mi SSE 27.6 mph 42.6 mph 0.09 in Rain Rain
3:59 AM 77.0 °F - 75.2 °F 94% 29.51 in 2.5 mi SSE 24.2 mph 42.6 mph 0.04 in Rain Rain
4:10 AM 78.8 °F - 77.0 °F 94% 29.51 in 1.8 mi SSE 28.8 mph 38.0 mph 0.14 in Rain Rain
4:12 AM 78.8 °F - 77.0 °F 94% 29.51 in 2.0 mi SSE 27.6 mph 42.6 mph 0.15 in Rain Rain
4:19 AM 77.0 °F - 77.0 °F 100% 29.51 in 3.0 mi SSE 28.8 mph 42.6 mph 0.18 in Rain Light Rain
4:36 AM 78.8 °F - 77.0 °F 94% 29.51 in 10.0 mi SSE 25.3 mph 35.7 mph 0.19 in Rain Light Rain
4:53 AM 79.0 °F - 77.0 °F 94% 29.51 in 9.0 mi SSE 27.6 mph 39.1 mph 0.19 in Rain Light Rain
5:02 AM 78.8 °F - 75.2 °F 89% 29.52 in 10.0 mi South 28.8 mph 46.0 mph 0.00 in Rain Light Rain
5:32 AM 78.8 °F - 77.0 °F 94% 29.53 in 1.8 mi SSE 23.0 mph 41.4 mph 0.13 in Rain Heavy Rain
5:39 AM 78.8 °F - 77.0 °F 94% 29.53 in 1.8 mi SSE 27.6 mph 41.4 mph 0.17 in Rain Rain
5:42 AM 78.8 °F - 77.0 °F 94% 29.54 in 3.0 mi SSE 25.3 mph 38.0 mph 0.17 in Rain Light Rain
5:53 AM 79.0 °F - 75.9 °F 90% 29.54 in 10.0 mi SSE 27.6 mph 35.7 mph 0.17 in Rain Light Rain
6:09 AM 78.8 °F - 75.2 °F 89% 29.55 in 2.0 mi SSE 29.9 mph 42.6 mph 0.08 in Rain Rain
6:14 AM 77.0 °F - 77.0 °F 100% 29.56 in 1.5 mi South 25.3 mph 42.6 mph 0.16 in Rain Heavy Rain
6:25 AM 78.8 °F - 77.0 °F 94% 29.56 in 3.0 mi SSE 21.9 mph 32.2 mph 0.23 in Rain Light Rain
6:48 AM 78.8 °F - 77.0 °F 94% 29.58 in 1.5 mi South 23.0 mph 31.1 mph 0.42 in Rain Heavy Rain
6:53 AM 78.1 °F - 77.0 °F 96% 29.59 in 1.0 mi South 26.5 mph 43.7 mph 0.53 in Rain Heavy Rain
7:09 AM 78.8 °F - 78.8 °F 100% 29.60 in 3.0 mi South 23.0 mph 33.4 mph 0.20 in Rain Light Rain
7:29 AM 78.8 °F - 75.2 °F 89% 29.61 in 10.0 mi South 21.9 mph 39.1 mph 0.20 in Rain Light Rain
7:53 AM 78.1 °F - 75.9 °F 93% 29.64 in 10.0 mi South 24.2 mph 32.2 mph 0.20 in   Mostly Cloudy
8:53 AM 77.0 °F - 75.0 °F 94% 29.67 in 10.0 mi South 15.0 mph 28.8 mph 0.01 in Rain Light Rain
9:40 AM 78.8 °F - 75.2 °F 89% 29.71 in 1.5 mi South 26.5 mph 38.0 mph 0.15 in Rain Heavy Rain
9:44 AM 75.2 °F - 75.2 °F 100% 29.71 in 0.8 mi SSW 21.9 mph 38.0 mph 0.22 in Rain Heavy Rain
9:53 AM 73.9 °F - 73.9 °F 100% 29.72 in 0.5 mi South 24.2 mph 38.0 mph 0.58 in Fog , Rain Heavy Rain
10:08 AM 75.2 °F - 75.2 °F 100% 29.71 in 1.8 mi South 15.0 mph 27.6 mph 0.12 in Rain Light Rain
10:10 AM 75.2 °F - 75.2 °F 100% 29.72 in 3.0 mi South 16.1 mph 26.5 mph 0.12 in Rain Light Rain
10:23 AM 78.8 °F - 75.2 °F 89% 29.72 in 10.0 mi South 13.8 mph - 0.12 in   Scattered Clouds
10:53 AM 81.0 °F 87.3 °F 75.9 °F 85% 29.75 in 10.0 mi South 17.3 mph 25.3 mph 0.12 in   Mostly Cloudy
11:53 AM 81.0 °F 86.7 °F 75.0 °F 82% 29.76 in 10.0 mi South 16.1 mph - 0.00 in Rain Light Rain
12:53 PM 80.1 °F 85.1 °F 75.0 °F 85% 29.80 in 10.0 mi South 17.3 mph - 0.00 in   Overcast
1:11 PM 78.8 °F - 75.2 °F 89% 29.80 in 5.0 mi SSE 16.1 mph 24.2 mph 0.02 in Rain Light Rain
1:20 PM 77.0 °F - 75.2 °F 94% 29.80 in 2.0 mi SSE 15.0 mph 23.0 mph 0.07 in Rain Rain
1:24 PM 77.0 °F - 75.2 °F 94% 29.80 in 4.0 mi SSE 16.1 mph - 0.07 in Rain Light Rain
1:38 PM 77.0 °F - 75.2 °F 94% 29.79 in 10.0 mi South 13.8 mph - 0.07 in Rain Light Rain
1:53 PM 77.0 °F - 75.9 °F 96% 29.82 in 10.0 mi Variable 6.9 mph - 0.07 in   Overcast
2:01 PM 77.0 °F - 75.2 °F 94% 29.82 in 2.5 mi SSW 11.5 mph 17.3 mph 0.07 in Rain Rain
2:06 PM 77.0 °F - 75.2 °F 94% 29.82 in 0.8 mi South 13.8 mph 21.9 mph 0.20 in Rain Heavy Rain
2:13 PM 75.2 °F - 75.2 °F 100% 29.81 in 0.8 mi South 11.5 mph 20.7 mph 0.29 in Rain Heavy Rain
2:21 PM 75.2 °F - 75.2 °F 100% 29.81 in 2.0 mi SSW 6.9 mph - 0.31 in Rain Light Rain
2:25 PM 75.2 °F - 75.2 °F 100% 29.81 in 3.0 mi SSW 8.1 mph - 0.32 in Rain Heavy Rain
2:31 PM 75.2 °F - 75.2 °F 100% 29.81 in 5.0 mi SSW 5.8 mph - 0.32 in Rain Light Rain
2:40 PM 75.2 °F - 75.2 °F 100% 29.81 in 7.0 mi Variable 6.9 mph - 0.33 in Rain Light Rain
2:53 PM 75.9 °F - 75.0 °F 97% 29.81 in 9.0 mi Variable 3.5 mph - 0.34 in Rain Light Rain
3:09 PM 75.2 °F - 75.2 °F 100% 29.82 in 1.8 mi SSW 5.8 mph - 0.06 in Rain Heavy Rain
3:20 PM 75.2 °F - 75.2 °F 100% 29.82 in 3.0 mi South 5.8 mph - 0.09 in Rain Light Rain
3:31 PM 75.2 °F - 75.2 °F 100% 29.82 in 10.0 mi Variable 3.5 mph - 0.09 in Rain Light Rain
3:53 PM 75.0 °F - 73.9 °F 96% 29.82 in 4.0 mi Calm Calm - 0.11 in Rain Light Rain
4:49 PM 75.2 °F - 75.2 °F 100% 29.81 in 2.0 mi SW 5.8 mph - 0.06 in Rain Light Rain
4:53 PM 75.9 °F - 75.0 °F 97% 29.82 in 4.0 mi SSW 3.5 mph - 0.06 in Rain Light Rain
5:40 PM 78.8 °F - 77.0 °F 94% 29.81 in 1.8 mi South 4.6 mph - 0.05 in Rain Heavy Rain
5:46 PM 78.8 °F - 77.0 °F 94% 29.82 in 2.0 mi South 5.8 mph - 0.06 in Rain Light Rain
5:53 PM 78.1 °F - 77.0 °F 96% 29.81 in 7.0 mi South 8.1 mph - 0.07 in Rain Light Rain
6:30 PM 82.4 °F 92.4 °F 78.8 °F 89% 29.82 in 10.0 mi SSE 18.4 mph 27.6 mph 0.00 in   Overcast
7:27 PM 82.4 °F 92.4 °F 78.8 °F 89% 29.85 in 10.0 mi SSE 15.0 mph 26.5 mph N/A   Overcast
7:53 PM 82.0 °F 91.6 °F 79.0 °F 90% 29.85 in 10.0 mi SSE 17.3 mph 25.3 mph N/A   Overcast
8:39 PM 82.4 °F 92.4 °F 78.8 °F 89% 29.88 in 10.0 mi SSE 15.0 mph 25.3 mph N/A   Mostly Cloudy
8:48 PM 80.6 °F 88.1 °F 78.8 °F 94% 29.88 in 10.0 mi SSE 15.0 mph 24.2 mph N/A   Overcast
8:53 PM 82.0 °F 92.8 °F 80.1 °F 94% 29.89 in 10.0 mi SSE 13.8 mph 24.2 mph N/A   Overcast
9:53 PM 80.1 °F 87.4 °F 80.1 °F 100% 29.93 in 10.0 mi SSE 12.7 mph 23.0 mph N/A   Overcast
10:38 PM 80.6 °F 88.1 °F 78.8 °F 94% 29.95 in 10.0 mi SSE 12.7 mph - N/A   Overcast
10:48 PM 80.6 °F 88.1 °F 78.8 °F 94% 29.95 in 10.0 mi SSE 11.5 mph 21.9 mph N/A   Overcast
10:53 PM 81.0 °F 89.2 °F 79.0 °F 94% 29.95 in 10.0 mi SSE 13.8 mph - N/A   Overcast
11:49 PM 80.6 °F 88.1 °F 78.8 °F 94% 29.96 in 10.0 mi SSE 12.7 mph 18.4 mph N/A   Mostly Cloudy
11:53 PM 81.0 °F 89.2 °F 79.0 °F 94% 29.96 in 10.0 mi South 12.7 mph 18.4 mph N/A   Mostly Cloudy